FW1313 Weather Reports


Display with metric or nautical units.
time (UTC)temp
F
wind
direction
speed
MPH
gust
MPH
rain 1hr
in
rain 24hr
in
rain mn
in
humidity
%
barometer
mb
20260507073359 53 353 0.0 0.0 0.00 0.00 0.00 56 1020.4
20260507070359 53 341 0.0 0.0 0.00 0.00 0.00 48 1020.7
20260507063359 53 353 0.0 0.0 0.00 0.00 0.00 44 1021.0
20260507060359 53 340 0.0 0.0 0.00 0.00 0.00 48 1021.2
20260507053359 53 340 0.0 0.0 0.00 0.00 0.00 56 1021.2
20260507050359 54 356 0.0 0.0 0.00 0.00 0.00 41 1021.3
20260507043359 54 356 0.0 0.0 0.00 0.00 0.00 45 1021.1
20260507040359 52 355 0.0 0.0 0.00 0.00 0.00 58 1020.6
20260507033359 54 355 0.0 0.0 0.00 0.00 0.00 55 1020.4
20260507030359 55 308 0.0 0.0 0.00 0.00 0.00 52 1019.9
20260507023359 55 311 0.0 0.0 0.00 0.00 0.00 55 1019.4
20260507020359 53 294 0.0 0.0 0.00 0.00 0.00 77 1019.1
20260507013359 55 227 0.0 0.0 0.00 0.00 0.00 73 1018.8
20260507010359 56 270 0.0 0.0 0.00 0.00 0.00 70 1018.5
20260507003359 57 211 0.0 0.0 0.00 0.00 0.00 67 1018.1
20260507000359 58 276 0.0 0.0 0.00 0.00 0.00 68 1017.6
20260506233359 58 197 0.0 0.0 0.00 0.00 0.00 67 1017.2
20260506230359 59 153 0.0 1.0 0.00 0.00 0.00 66 1017.2
20260506223359 58 316 0.0 3.0 0.00 0.00 0.00 67 1017.2
20260506220402 60 203 0.0 1.0 0.00 0.00 0.00 65 1017.2
20260506213359 58 298 0.0 1.0 0.00 0.00 0.00 66 1017.0
20260506210359 61 311 0.0 2.0 0.00 0.00 0.00 64 1016.9
20260506203359 60 322 0.0 0.0 0.00 0.00 0.00 64 1016.4
20260506200359 61 307 0.0 1.0 0.00 0.00 0.00 57 1016.3
20260506193402 60 197 0.0 0.0 0.00 0.00 0.00 58 1016.1
20260506190359 60 44 0.0 0.0 0.00 0.00 0.00 51 1016.0
20260506183359 57 266 0.0 0.0 0.00 0.00 0.00 54 1015.8
20260506180359 56 312 0.0 0.0 0.00 0.00 0.00 56 1015.4
20260506173359 53 328 0.0 1.0 0.00 0.00 0.00 59 1014.7
20260506170359 51 329 0.0 0.0 0.00 0.00 0.00 72 1014.4
20260506163359 47 294 0.0 1.0 0.00 0.01 0.00 94 1014.2
20260506160359 45 271 0.0 0.0 0.00 0.03 0.00 94 1013.9
20260506153359 44 325 0.0 0.0 0.00 0.04 0.00 94 1013.6
20260506150359 43 293 0.0 0.0 0.00 0.05 0.00 94 1013.5
20260506143359 41 359 0.0 0.0 0.00 0.07 0.00 94 1013.2
20260506140359 40 347 0.0 0.0 0.00 0.09 0.00 95 1012.9
20260506133359 39 37 0.0 0.0 0.00 0.12 0.00 95 1012.7
20260506130359 38 24 0.0 0.0 0.00 0.16 0.00 95 1012.6
20260506123359 38 30 0.0 0.0 0.00 0.18 0.00 95 1012.4
20260506120402 37 32 0.0 0.0 0.00 0.19 0.00 95 1012.3
20260506113359 37 30 0.0 0.0 0.00 0.19 0.00 95 1012.1
20260506110359 38 37 0.0 0.0 0.00 0.19 0.00 95 1012.1
20260506103359 38 41 0.0 0.0 0.00 0.19 0.00 95 1012.1
20260506100359 37 349 0.0 0.0 0.00 0.19 0.00 95 1012.1
20260506093359 37 343 0.0 0.0 0.00 0.19 0.00 95 1012.1
20260506090359 36 243 0.0 0.0 0.00 0.19 0.00 95 1012.4
20260506083359 35 355 0.0 0.0 0.00 0.19 0.00 95 1012.7
20260506080359 35 287 0.0 0.0 0.00 0.19 0.00 95 1012.8